Showing default

GFO, 25157

Orbit data source: Space-Track

GFO, 25157 is a payload satellite owned by USN (US) in LEO that was launched on Tue, 10 Feb 1998 UTC via a TAURUS 2210 launch vehicle from the Air Force Western Test Range (AFWTR). Payload-class satellites include a variety of spacecraft equipped with specific instruments for various scientific and technological missions. These include communications satellites like Starlink; space stations such as the ISS; scientific satellites like the Hubble; Earth observation satellites from companies like Planet Labs, Umbra, and HawkEye 360; GPS; miniature CubeSats for education and research; and military/defense satellites.

Loading next visibility...
Identifier
25157, 1998-007A
Orbit
LEO
Country
Flag of USUS
Related business
Manufacturer
Ball
Mission
Non-operational Civil Science
Bus & Motor
BCP-2000/TCHSTAR, Unknown motor
Mass
365 kg wet, ~300 kg dry
Launch date (UTC)
1998-02-10 (28 years ago)
Launch vehicle
TAURUS 2210
Launch site
Air Force Western Test Range (AFWTR)
Object type
Payload
Rocket body
Debris
Shape & HBR
Cyl + 1 Dish + 1 Pan, 1.4 m
Radar Cross Section
2.513 m², Large (>1 m²)

Expand to show TLE details & history
Last TLE update: 19 hours ago

TLE from 19 hours ago
0 GFO
1 25157U 98007A   25348.82083238  .00030647  00000-0  42419-3 0  9993
2 25157 108.0202  54.8835 0062668   2.3939 357.7553 15.54822578497611
Epoch: 2025-12-14T19:41Z
TLE epoch observation values (Epoch: 2025-12-14T19:41:59.917Z)
Latitude
0.00003°
Longitude
35.65558°
Altitude
362.823 km
Speed
7.716 km/s
True Right ascension
03h 39m 32s
True Declination
0° 00' 00"
Sunlit
Object was in full shadow at epoch
Visualization orbit readout
Latitude
Unknown
Longitude
Unknown
Altitude
Unknown
Speed
Unknown
Apparent Right ascension
Unknown
Apparent Declination
Unknown
Sunlit
N/A
Visualization observer readout
Local Sidereal Time
13:26:14
Azimuth
Unknown
Elevation
Unknown
Doppler factor
Unknown
Orbital elements
Apogee altitude
442.837 km
Perigee altitude
357.878 km
Semi-major axis
6,778.495 km
Eccentricity
0.00627
Inclination
108.0202°
RAAN
54.8835°
Arg. of periapsis
2.3939°
True anomaly
357.72695°
Mean anomaly
357.7553°
Eccentric anomaly
357.74115°
Mean motion
3.88905 °/min
Orbital period
92.57 mins
BSTAR
0.00042419
Loading maneuver chart data...
Computing Atmospheric mass density...
Loading historical data...
Loading historical data...
Loading historical data...
Loading historical data...
Loading historical data...
Loading historical data...
Loading historical data...
Other satellites on launch #7 in the year 1998 (1998-02-10 UTC)

Documentation

Showing up to 5 results
|